Content
SEND FEEDBACK

Daily
Averages
Monthly
Summary
United States of America

POTTS JUNCTION, GUAM


Home > North America > United States > Guam
Elevation: 360 feet     Latitude: 13 33N     Longitude: 144 50E

WEATHER
 
SELECT A DAY
Number of Records: 208,997;   Date Range: 1/1/95 - 7/26/14
 
SHARE

PRINT THIS DATA

[ ← Previous Day ]
WEATHER ALMANAC - MAY 14, 2014
[ Next Day → ]
[ °C ]   °F
Weather ElementAverageHighLow
Temperature83.3 °F89.1 °F (10:54 am)78.1 °F (3:54 am)
Dewpoint73.5 °F75 °F (2:54 am)72 °F (8:54 am)
Humidity73.2 %88 % (2:54 am)57 % (12:54 pm)
Barometer29.83 in29.88 in (7:54 am)29.76 in (4:54 pm)
Wind Speed6.2 mph12.7 mph (1:54 pm)
Wind Gust19.6 mph (1:54 pm)
Weather ElementAverage
Visibility10 mi
Wind DirectionENE (65.7 °)

Weather ElementTotal
Precipitation---
Cooling Degree Days18.6 (Base 65)
Growing Degree Days33.6 (Base 50)
Averaged from 23 records on May 14, 2014
WEATHER CONDITIONS BREAKOUT
WIND DIRECTION BREAKOUT
WEATHER BY HOUR - MAY 14, 2014
[ °C ]   °F
Local TimeTemperatureDewpointHumidityBarometerVisibilityWind DirectionWind SpeedGust SpeedPrecipitationEventsConditions
1:54 AM80.1 °F73.9 °F81 %29.86 in10.0 miNE (50°)3.5 mphPartly Cloudy
2:54 AM79.0 °F75.0 °F88 %29.84 in10.0 miNE (40°)5.8 mphClear
3:54 AM78.1 °F73.9 °F87 %29.83 in10.0 miNE (50°)5.8 mphClear
4:54 AM78.1 °F73.9 °F87 %29.84 in10.0 miNE (50°)4.6 mphClear
5:54 AM78.1 °F73.9 °F87 %29.86 in10.0 miNorth (10°)3.5 mphClear
6:54 AM81.0 °F75.0 °F82 %29.87 in10.0 miENE (70°)5.8 mphClear
7:54 AM84.9 °F73.0 °F67 %29.88 in10.0 miENE (70°)9.2 mphPartly Cloudy
8:54 AM87.1 °F72.0 °F61 %29.88 in10.0 miENE (70°)6.9 mphPartly Cloudy
9:54 AM88.0 °F73.0 °F61 %29.87 in10.0 miEast (80°)8.1 mphMostly Cloudy
10:54 AM89.1 °F73.0 °F59 %29.86 in10.0 miEast (100°)8.1 mphScattered Clouds
11:54 AM87.1 °F72.0 °F61 %29.83 in10.0 miVariable4.6 mphOvercast
12:54 PM89.1 °F72.0 °F57 %29.81 in10.0 miESE (110°)9.2 mphScattered Clouds
1:54 PM88.0 °F73.0 °F61 %29.80 in10.0 miEast (100°)12.7 mph19.6 mphPartly Cloudy
2:54 PM86.0 °F73.0 °F65 %29.78 in10.0 miESE (120°)6.9 mphOvercast
3:54 PM86.0 °F73.0 °F65 %29.77 in10.0 miEast (100°)8.1 mphMostly Cloudy
4:54 PM84.9 °F73.9 °F69 %29.76 in10.0 miEast (100°)9.2 mphClear
5:54 PM84.0 °F73.9 °F72 %29.78 in10.0 miEast (90°)8.1 mphClear
6:54 PM82.0 °F73.9 °F76 %29.80 in10.0 miEast (90°)5.8 mphClear
7:54 PM82.0 °F75.0 °F79 %29.83 in10.0 miENE (60°)4.6 mphClear
8:54 PM81.0 °F75.0 °F82 %29.83 in10.0 miCalmClear
9:54 PM81.0 °F73.9 °F79 %29.85 in10.0 miNE (50°)4.6 mphClear
10:54 PM80.1 °F73.0 °F79 %29.85 in10.0 miNE (50°)3.5 mphClear
11:54 PM80.1 °F73.0 °F79 %29.85 in10.0 miNE (50°)3.5 mphMostly Cloudy
Hourly data recorded from PGUM, located miles away from Potts Junction, Guam







STORIES FROM OUR PARTNERS